Location: Leuk
(46.3174°N, 7.6341°E)
Time: 20:08:03
(UTC+00:00)

FENGYUN 1C DEB - Visible Passes

Search period start: 19 September 2021 00:00
Search period end: 29 September 2021 00:00
Orbit: 798 x 887 km, 98.9° (Epoch: 19 September)

Date Brightness Start Highest point End Pass type
(mag) Time Alt. Az. Time Alt. Az. Time Alt. Az.
19 Sep ? 21:09:06 33° NNE 21:09:06 33° NNE 21:12:21 10° N visible
19 Sep ? 22:50:55 16° NW 22:50:55 16° NW 22:52:21 10° NW visible
20 Sep ? 20:54:43 29° NNE 20:54:43 29° NNE 20:57:55 10° N visible
20 Sep ? 22:36:33 19° NW 22:36:33 19° NW 22:38:20 10° NNW visible
21 Sep ? 20:40:21 26° NNE 20:40:21 26° NNE 20:43:25 10° N visible
21 Sep ? 22:22:11 22° NW 22:22:11 22° NW 22:24:15 10° NNW visible
22 Sep ? 20:25:59 22° NE 20:25:59 22° NE 20:28:52 10° N visible
22 Sep ? 22:07:49 24° NNW 22:07:49 24° NNW 22:10:04 10° NNW visible
23 Sep ? 20:11:37 18° NE 20:11:37 18° NE 20:14:13 10° NNE visible
23 Sep ? 21:53:26 26° NNW 21:53:26 26° NNW 21:55:49 10° NNW visible
24 Sep ? 19:57:14 15° NE 19:57:14 15° NE 19:59:26 10° NNE visible
24 Sep ? 21:39:04 27° NNW 21:39:04 27° NNW 21:41:32 10° NNW visible
25 Sep ? 19:42:52 12° NE 19:42:52 12° NE 19:44:24 10° NNE visible
25 Sep ? 21:24:42 27° N 21:24:42 27° N 21:27:10 10° N visible
25 Sep ? 23:06:32 10° NW 23:06:32 10° NW 23:06:40 10° NW visible
26 Sep ? 21:10:19 26° N 21:10:19 26° N 21:12:47 10° N visible
26 Sep ? 22:52:09 13° NW 22:52:09 13° NW 22:52:47 10° NW visible
27 Sep ? 20:55:57 24° NNE 20:55:57 24° NNE 20:58:21 10° N visible
27 Sep ? 22:37:47 15° NW 22:37:47 15° NW 22:38:46 10° NNW visible
28 Sep ? 20:41:34 21° NNE 20:41:34 21° NNE 20:43:50 10° N visible
28 Sep ? 22:23:24 17° NNW 22:23:24 17° NNW 22:24:40 10° NNW visible
